Content
SEND FEEDBACK

Daily
Averages
Monthly
Summary
United States of America

BOX ELDER, SOUTH DAKOTA


Home > North America > United States > South Dakota
Elevation: 3170 feet     Latitude: 44 09N     Longitude: 103 06W

WEATHER
 
SELECT A DAY
Number of Records: 207,026;   Date Range: 1/1/95 - 9/29/14
 
SHARE

PRINT THIS DATA

[ ← Previous Day ]
WEATHER ALMANAC - JANUARY 21, 2013
[ Next Day → ]
[ °C ]   °F
Weather ElementAverageHighLow
Temperature12.6 °F16.9 °F (2:55 pm)6.8 °F (11:55 pm)
Dewpoint7.6 °F12.2 °F (3:14 pm)3.2 °F (11:55 pm)
Humidity80.4 %87 % (5:55 pm)67 % (12:59 am)
Barometer30.36 in30.43 in (12:59 am)30.25 in (7:55 pm)
Wind Speed4.4 mph13.8 mph (12:59 am)
Weather ElementAverage
Visibility7.9 mi
Wind DirectionESE (118 °)

Weather ElementTotal
Precipitation---
Heating Degree Days53.2 (Base 65)
Averaged from 127 records on January 21, 2013
WEATHER CONDITIONS BREAKOUT
WIND DIRECTION BREAKOUT
WEATHER BY HOUR - JANUARY 21, 2013
[ °C ]   °F
Local TimeTemperatureDewpointHumidityBarometerVisibilityWind DirectionWind SpeedGust SpeedPrecipitationEventsConditions
12:59 AM14.0 °F5.0 °F67 %30.43 in10.0 miNorth (350°)13.8 mphSnowLight Snow
1:55 AM13.6 °F6.6 °F74 %30.43 in7.0 miNorth (10°)10.4 mph0.00 inSnowLight Snow
2:33 AM12.2 °F6.8 °F79 %30.42 in8.0 miNorth (350°)5.8 mphSnowLight Snow
2:36 AM12.2 °F6.8 °F79 %30.42 in8.0 miNNW (340°)6.9 mphSnowLight Snow
2:39 AM12.2 °F6.8 °F79 %30.42 in7.0 miNNW (340°)5.8 mphSnowLight Snow
2:42 AM12.2 °F6.8 °F79 %30.42 in7.0 miNNW (340°)4.6 mphSnowLight Snow
2:52 AM12.2 °F6.8 °F79 %30.42 in6.0 miNorth (350°)4.6 mphSnowLight Snow
2:55 AM12.4 °F7.3 °F80 %30.41 in7.0 miNorth (350°)3.5 mph0.00 inSnowLight Snow
2:59 AM12.2 °F6.8 °F79 %30.41 in7.0 miNorth (360°)4.6 mphSnowLight Snow
3:06 AM12.2 °F6.8 °F79 %30.40 in5.0 miNNE (20°)4.6 mphSnowLight Snow
3:32 AM12.2 °F6.8 °F79 %30.41 in6.0 miNorth (10°)3.5 mphSnowLight Snow
3:55 AM11.7 °F6.4 °F80 %30.39 in10.0 miNorth (10°)3.5 mph0.00 inSnowLight Snow
4:03 AM12.2 °F6.8 °F79 %30.41 in10.0 miNorth (350°)5.8 mphOvercast
4:17 AM12.2 °F6.8 °F79 %30.40 in10.0 miNorth (10°)4.6 mphOvercast
4:18 AM12.2 °F6.8 °F79 %30.40 in10.0 miNorth (10°)5.8 mphOvercast
4:31 AM12.2 °F6.8 °F79 %30.40 in10.0 miNorth (10°)6.9 mphOvercast
4:41 AM12.2 °F6.8 °F79 %30.40 in10.0 miNorth (360°)6.9 mphSnowLight Snow
4:55 AM12.2 °F7.0 °F80 %30.40 in10.0 miNorth (350°)8.1 mph0.00 inSnowLight Snow
5:00 AM12.2 °F6.8 °F79 %30.40 in10.0 miNorth (360°)8.1 mphSnowLight Snow
5:04 AM12.2 °F6.8 °F79 %30.40 in9.0 miNorth (360°)8.1 mphSnowLight Snow
5:06 AM12.2 °F6.8 °F79 %30.39 in9.0 miNorth (360°)8.1 mphSnowLight Snow
5:07 AM12.2 °F6.8 °F79 %30.39 in9.0 miNorth (360°)8.1 mphSnowLight Snow
5:12 AM12.2 °F6.8 °F79 %30.40 in10.0 miNorth (10°)8.1 mphSnowLight Snow
5:13 AM12.2 °F6.8 °F79 %30.40 in10.0 miNorth (360°)8.1 mphSnowLight Snow
5:18 AM12.2 °F6.8 °F79 %30.40 in10.0 miNorth (10°)6.9 mphSnowLight Snow
5:20 AM12.2 °F6.8 °F79 %30.40 in10.0 miNorth (360°)9.2 mphOvercast
5:21 AM12.2 °F6.8 °F79 %30.40 in10.0 miNorth (10°)8.1 mphSnowLight Snow
5:25 AM12.2 °F6.8 °F79 %30.40 in9.0 miNorth (10°)8.1 mphOvercast
5:29 AM12.2 °F6.8 °F79 %30.39 in9.0 miNorth (360°)8.1 mphSnowLight Snow
5:31 AM12.2 °F6.8 °F79 %30.39 in9.0 miNorth (360°)6.9 mphOvercast
5:32 AM12.2 °F6.8 °F79 %30.39 in9.0 miNorth (360°)6.9 mphSnowLight Snow
5:55 AM12.0 °F7.0 °F80 %30.40 in8.0 miNorth (360°)5.8 mph0.00 inSnowLight Snow
5:58 AM12.2 °F6.8 °F79 %30.39 in9.0 miNorth (360°)6.9 mphSnowLight Snow
6:50 AM10.4 °F6.8 °F85 %30.39 in7.0 miCalmOvercast
6:55 AM10.6 °F5.9 °F81 %30.38 in7.0 miCalm0.00 inOvercast
7:14 AM10.4 °F6.8 °F85 %30.39 in9.0 miEast (80°)3.5 mphOvercast
7:17 AM10.4 °F6.8 °F85 %30.39 in9.0 miEast (80°)3.5 mphOvercast
7:20 AM10.4 °F6.8 °F85 %30.39 in9.0 miENE (70°)3.5 mphOvercast
7:26 AM10.4 °F6.8 °F85 %30.39 in10.0 miCalmOvercast
7:27 AM10.4 °F6.8 °F85 %30.39 in10.0 miESE (110°)3.5 mphOvercast
7:33 AM10.4 °F6.8 °F85 %30.39 in10.0 miESE (110°)3.5 mphOvercast
7:40 AM10.4 °F5.0 °F79 %30.41 in8.0 miCalmSnowLight Snow
7:43 AM10.4 °F5.0 °F79 %30.41 in8.0 miCalmSnowLight Snow
7:53 AM10.4 °F5.0 °F79 %30.43 in9.0 miNE (50°)3.5 mphOvercast
7:55 AM10.2 °F5.7 °F82 %30.43 in9.0 miCalm0.00 inOvercast
7:56 AM10.4 °F5.0 °F79 %30.43 in9.0 miCalmOvercast
8:14 AM10.4 °F6.8 °F85 %30.42 in6.0 miCalmSnowLight Snow
8:39 AM10.4 °F5.0 °F79 %30.42 in6.0 miCalmHaze
8:51 AM10.4 °F5.0 °F79 %30.42 in7.0 miCalmOvercast
8:55 AM10.6 °F5.5 °F80 %30.42 in7.0 miCalm0.00 inOvercast
9:00 AM10.4 °F5.0 °F79 %30.42 in6.0 miCalmSnowLight Snow
9:07 AM10.4 °F6.8 °F85 %30.42 in7.0 miCalmSnowLight Snow
9:11 AM10.4 °F6.8 °F85 %30.42 in6.0 miCalmSnowLight Snow
9:24 AM10.4 °F6.8 °F85 %30.42 in5.0 miCalmHaze
9:26 AM10.4 °F6.8 °F85 %30.42 in5.0 miCalmHaze
9:38 AM12.2 °F6.8 °F79 %30.41 in4.0 miCalmHaze
9:44 AM12.2 °F6.8 °F79 %30.42 in4.0 miCalmHaze
9:54 AM12.2 °F6.8 °F79 %30.42 in5.0 miCalmSnowLight Snow
9:55 AM12.0 °F6.8 °F80 %30.43 in6.0 miCalm0.00 inSnowLight Snow
9:56 AM12.2 °F6.8 °F79 %30.43 in6.0 miCalmSnowLight Snow
10:00 AM12.2 °F6.8 °F79 %30.42 in5.0 miCalmSnowLight Snow
10:03 AM12.2 °F6.8 °F79 %30.43 in6.0 miCalmSnowLight Snow
10:06 AM12.2 °F6.8 °F79 %30.43 in6.0 miNW (310°)3.5 mphSnowLight Snow
10:21 AM12.2 °F6.8 °F79 %30.43 in4.0 miNNW (330°)3.5 mphSnowLight Snow
10:55 AM13.5 °F7.7 °F78 %30.42 in4.0 miNorth (360°)3.5 mph0.00 inSnowLight Snow
11:00 AM14.0 °F8.6 °F79 %30.41 in3.0 miCalmSnowLight Snow
11:02 AM14.0 °F8.6 °F79 %30.40 in3.0 miCalmSnowLight Snow
11:04 AM14.0 °F8.6 °F79 %30.40 in2.5 miCalmSnowLight Snow
11:10 AM15.8 °F8.6 °F73 %30.40 in3.0 miCalmSnowLight Snow
11:31 AM14.0 °F8.6 °F79 %30.38 in10.0 miNNW (330°)3.5 mphOvercast
11:42 AM15.8 °F8.6 °F73 %30.37 in9.0 miCalmOvercast
11:45 AM15.8 °F8.6 °F73 %30.37 in8.0 miCalmOvercast
11:46 AM15.8 °F8.6 °F73 %30.37 in8.0 miCalmOvercast
11:52 AM15.8 °F8.6 °F73 %30.36 in9.0 miNorth (360°)5.8 mphOvercast
11:54 AM15.8 °F8.6 °F73 %30.36 in9.0 miNorth (350°)4.6 mphOvercast
11:55 AM15.4 °F8.2 °F73 %30.36 in9.0 miNorth (350°)4.6 mph0.00 inOvercast
12:21 PM15.8 °F8.6 °F73 %30.35 in7.0 miCalmOvercast
12:23 PM15.8 °F8.6 °F73 %30.34 in8.0 miCalmOvercast
12:24 PM15.8 °F8.6 °F73 %30.34 in8.0 miCalmOvercast
12:26 PM15.8 °F8.6 °F73 %30.34 in9.0 miCalmOvercast
12:37 PM15.8 °F8.6 °F73 %30.33 in6.0 miCalmOvercast
12:38 PM15.8 °F8.6 °F73 %30.33 in6.0 miCalmOvercast
12:55 PM15.3 °F10.0 °F80 %30.32 in4.0 miVariable3.5 mph0.00 inSnowLight Snow
1:03 PM15.8 °F10.4 °F79 %30.32 in2.5 miVariable3.5 mphSnowLight Snow
1:05 PM15.8 °F10.4 °F79 %30.32 in2.5 miCalmSnowLight Snow
1:09 PM15.8 °F10.4 °F79 %30.32 in3.0 miESE (120°)3.5 mphSnowLight Snow
1:25 PM15.8 °F10.4 °F79 %30.31 in7.0 miESE (110°)5.8 mphOvercast
1:37 PM15.8 °F10.4 °F79 %30.32 in6.0 miEast (100°)4.6 mphHaze
1:41 PM15.8 °F10.4 °F79 %30.31 in5.0 miEast (100°)3.5 mphHaze
1:42 PM15.8 °F10.4 °F79 %30.31 in5.0 miEast (100°)4.6 mphHaze
1:45 PM15.8 °F10.4 °F79 %30.31 in5.0 miESE (120°)4.6 mphHaze
1:49 PM15.8 °F10.4 °F79 %30.31 in5.0 miVariable3.5 mphHaze
1:55 PM15.8 °F10.4 °F79 %30.31 in8.0 miEast (90°)3.5 mph0.00 inOvercast
2:47 PM15.8 °F10.4 °F79 %30.31 in10.0 miENE (70°)5.8 mphSnowLight Snow
2:55 PM16.9 °F11.8 °F81 %30.31 in10.0 miEast (80°)5.8 mph0.00 inOvercast
3:14 PM15.8 °F12.2 °F86 %30.31 in10.0 miENE (70°)6.9 mphSnowLight Snow
3:29 PM15.8 °F10.4 °F79 %30.31 in10.0 miEast (80°)6.9 mphOvercast
3:43 PM15.8 °F10.4 °F79 %30.30 in10.0 miEast (90°)8.1 mphOvercast
3:47 PM14.0 °F10.4 °F86 %30.30 in10.0 miEast (80°)5.8 mphOvercast
3:55 PM14.7 °F10.4 °F83 %30.30 in10.0 miEast (90°)8.1 mph0.00 inOvercast
4:02 PM14.0 °F10.4 °F86 %30.30 in7.0 miEast (80°)6.9 mphSnowLight Snow
4:14 PM14.0 °F10.4 °F86 %30.30 in4.0 miEast (90°)6.9 mphSnowLight Snow
4:17 PM14.0 °F10.4 °F86 %30.30 in4.0 miEast (90°)6.9 mphSnowLight Snow
4:19 PM14.0 °F10.4 °F86 %30.30 in5.0 miEast (80°)6.9 mphOvercast
4:30 PM12.2 °F8.6 °F85 %30.29 in10.0 miEast (90°)5.8 mphOvercast
4:31 PM12.2 °F8.6 °F85 %30.29 in10.0 miEast (90°)5.8 mphOvercast
4:37 PM12.2 °F8.6 °F85 %30.29 in10.0 miEast (80°)6.9 mphOvercast
4:55 PM12.6 °F9.1 °F86 %30.28 in10.0 miEast (100°)5.8 mph0.00 inOvercast
5:03 PM12.2 °F8.6 °F85 %30.28 in10.0 miEast (90°)8.1 mphMostly Cloudy
5:25 PM10.4 °F6.8 °F85 %30.28 in10.0 miEast (90°)8.1 mphMostly Cloudy
5:27 PM10.4 °F6.8 °F85 %30.29 in10.0 miEast (90°)8.1 mphMostly Cloudy
5:55 PM10.8 °F7.7 °F87 %30.30 in10.0 miEast (100°)9.2 mphMostly Cloudy
5:56 PM10.4 °F6.8 °F85 %30.30 in10.0 miEast (90°)8.1 mphMostly Cloudy
6:06 PM10.4 °F6.8 °F85 %30.30 in10.0 miEast (100°)8.1 mphOvercast
6:15 PM10.4 °F6.8 °F85 %30.31 in10.0 miEast (90°)10.4 mphOvercast
6:55 PM9.9 °F6.8 °F87 %30.31 in10.0 miESE (110°)10.4 mphOvercast
7:01 PM10.4 °F6.8 °F85 %30.31 in10.0 miESE (110°)10.4 mphOvercast
7:55 PM9.7 °F6.4 °F87 %30.25 in10.0 miSE (130°)10.4 mphOvercast
8:05 PM10.4 °F6.8 °F85 %30.26 in10.0 miSE (140°)6.9 mphOvercast
8:16 PM10.4 °F6.8 °F85 %30.27 in10.0 miESE (120°)5.8 mphOvercast
8:20 PM10.4 °F6.8 °F85 %30.27 in10.0 miESE (120°)5.8 mphOvercast
8:36 PM10.4 °F6.8 °F85 %30.27 in10.0 miESE (120°)5.8 mphOvercast
8:55 PM10.2 °F6.8 °F86 %30.28 in10.0 miESE (120°)4.6 mphOvercast
9:55 PM10.4 °F7.0 °F86 %30.27 in10.0 miSE (140°)6.9 mphOvercast
10:49 PM8.6 °F5.0 °F85 %30.26 in10.0 miSE (140°)9.2 mphScattered Clouds
10:55 PM8.4 °F4.8 °F85 %30.27 in10.0 miSSE (150°)8.1 mphScattered Clouds
11:55 PM6.8 °F3.2 °F85 %30.26 in10.0 miSE (130°)4.6 mphClear
Hourly data recorded from KRCA, located miles away from Box Elder, South Dakota







STORIES FROM OUR PARTNERS